Location: *
(45.1961°N, 1.9694°E)
Time: 12:32:37
(UTC+00:00)

Meteor 1-11 Rocket - Pass Details

Date: 25 August 2019
Orbit: 831 x 916 km, 81.2° (Epoch: 21 September)

Event Time Altitude Azimuth Distance (km) Brightness Sun altitude
Rises 19:52:28 0° 178° (S) 3,516 6.6 -12.2°
Reaches altitude 10° 19:54:55 10° 175° (S) 2,587 5.9 -12.5°
Maximum altitude 20:00:46 63° 96° (E) 1,018 3.9 -13.4°
Drops below altitude 10° 20:06:40 10° 17° (NNE) 2,618 6.4 -14.3°
Sets 20:09:10 0° 14° (NNE) 3,562 7.2 -14.7°
